Farmington, MO

11:43 AM CST on December 12, 2019 (GMT -0600)
Farmington Regional

Weather History for KFAM - October, 2019

Change the Weather History Date:

Monday, October 14, 2019

  Actual Average Record
Temperature  
Mean Temperature 56 °F -  
Max Temperature 73 °F 66 °F 87 °F (2017)
Min Temperature 39 °F 44 °F 30 °F (2002)
Degree Days  
Heating Degree Days 9    
Growing Degree Days 6 (Base 50)    
Moisture  
Dew Point 43 °F    
Average Humidity 66    
Maximum Humidity 96    
Minimum Humidity 38    
Precipitation  
Precipitation 0.00 in - - ()
Sea Level Pressure  
Sea Level Pressure 30.10 in    
Wind  
Wind Speed 2 mph (SSE)    
Max Wind Speed 9 mph    
Max Gust Speed -    
Visibility 10 miles    
Events      
Averages and records for this station are not official NWS values.
T = Trace of Precipitation, MM = Missing Value Source: NWS Daily Summary

Daily Weather History Graph

Daily Weather History Graph

Search for Another Location

Airport or City:

Astronomy

Oct. 14, 2019 Rise Set
Actual Time 7:08 AM CDT 6:25 PM CDT
Civil Twilight 6:42 AM CDT 6:52 PM CDT
Nautical Twilight 6:12 AM CDT 7:22 PM CDT
Astronomical Twilight 5:41 AM CDT 7:53 PM CDT
Moon 7:16 PM CDT (10/14) 7:41 AM CDT (10/14)
Length of Visible Light 12h 09m
Length of Day
11h 17m
Full, 99% of the Moon is Illuminated
Oct 14
Full
Oct 21
Last Quarter
Oct 27
New
Nov 4
First Quarter
Nov 12
Full

Hourly Weather History & Observations

Time (CDT) Temp. Dew Point Humidity Pressure Visibility Wind Dir Wind Speed Gust Speed Precip Events Conditions
12:56 AM 45.0 °F 39.9 °F 82% 30.07 in 10.0 mi Calm Calm - N/A   Clear
1:56 AM 44.1 °F 39.0 °F 82% 30.07 in 10.0 mi Calm Calm - N/A   Clear
3:56 AM 41.0 °F 39.0 °F 93% 30.08 in 10.0 mi Calm Calm - N/A   Clear
4:56 AM 41.0 °F 39.0 °F 93% 30.09 in 10.0 mi Calm Calm - N/A   Clear
5:56 AM 39.0 °F 37.9 °F 96% 30.12 in 10.0 mi Calm Calm - N/A   Clear
6:56 AM 39.0 °F 37.9 °F 96% 30.13 in 10.0 mi Calm Calm - N/A   Clear
7:56 AM 41.0 °F 39.0 °F 93% 30.14 in 10.0 mi Calm Calm - N/A   Clear
8:56 AM 48.0 °F 43.0 °F 83% 30.17 in 10.0 mi Calm Calm - N/A   Clear
9:56 AM 55.9 °F 45.0 °F 67% 30.17 in 10.0 mi Calm Calm - N/A   Clear
10:56 AM 62.1 °F 44.1 °F 52% 30.16 in 10.0 mi South 3.5 mph - N/A   Clear
11:56 AM 66.0 °F 43.0 °F 43% 30.15 in 10.0 mi Calm Calm - N/A   Clear
12:56 PM 69.1 °F 44.1 °F 40% 30.13 in 9.0 mi Variable 4.6 mph - N/A   Clear
1:56 PM 71.1 °F 45.0 °F 39% 30.09 in 10.0 mi SSE 3.5 mph - N/A   Clear
2:56 PM 72.0 °F 45.0 °F 38% 30.08 in 10.0 mi Calm Calm - N/A   Clear
3:56 PM 73.0 °F 46.0 °F 38% 30.07 in 10.0 mi ESE 6.9 mph - N/A   Clear
4:56 PM 72.0 °F 46.0 °F 40% 30.06 in 10.0 mi SSE 9.2 mph - N/A   Clear
5:56 PM 68.0 °F 46.0 °F 45% 30.06 in 10.0 mi SSE 5.8 mph - N/A   Clear
6:56 PM 62.1 °F 46.9 °F 58% 30.07 in 10.0 mi SSE 6.9 mph - N/A   Clear
7:56 PM 57.9 °F 46.0 °F 65% 30.07 in 10.0 mi SSE 5.8 mph - N/A   Clear
8:56 PM 57.0 °F 45.0 °F 64% 30.07 in 10.0 mi SSE 5.8 mph - N/A   Clear
9:56 PM 57.0 °F 45.0 °F 64% 30.06 in 10.0 mi SE 4.6 mph - N/A   Clear
10:56 PM 54.0 °F 45.0 °F 72% 30.06 in 10.0 mi South 3.5 mph - N/A   Clear
11:56 PM 52.0 °F 46.0 °F 80% 30.06 in 10.0 mi SSE 5.8 mph - N/A   Clear